Flag for Germany Weather past 2 weeks in Kempten, Bavaria, Germany

Now
33 °F

Passing clouds.


Feels Like: 28 °F
Forecast: 36 / 49 °F
Wind: 6 mph from South

Location: Kempten

Current Time: Dec 22, 2014 at 8:53:10 AM

Latest Report: Dec 22, 2014 at 8:00 AM


Visibility: 13 mi

Pressure: 30.45 "Hg

Humidity: 84%

Dew point: 29 °F

Location of KemptenLocation

Historic Weather in Kempten — Graph

°F

Kempten temperature yesterday

Maximum temperature yesterday: 41 °F (at 2:00 PM)
Minimum temperature yesterday: 34 °F (at 2:00 AM)
Average temperature yesterday: 37 °F

Past Weeks' High & Low Weather Summary

 TemperatureHumidityPressure
High53 °F (Dec 19, 2:00 PM)98% (Dec 16, 8:00 AM)30.58 "Hg (Dec 16, 8:00 AM)
Low24 °F (Dec 10, 7:00 AM)47% (Dec 13, 2:00 PM)29.84 "Hg (Dec 12, 9:00 PM)
Average39 °F81%30.16 "Hg
* Reported Dec 7 7:00 AM — Dec 22 7:00 AM, Kempten, Weather by CustomWeather, © 2014

Note: Actual official high and low records may vary slightly from our data, if they occured in-between our weather recording intervals... More about our weather records

Advertising

Kempten weather history for previous 24 hours

 ConditionsComfort  
Time TempWeatherWind HumidityBarometerVisibility
7:00 AM
Dec 22
33 °FPassing clouds.5 mph83%30.46 "Hg17 mi
6:00 AM34 °FPassing clouds.3 mph85%30.46 "Hg15 mi
5:00 AM33 °FPassing clouds.3 mph86%30.46 "Hg14 mi
3:00 AM36 °FPassing clouds.3 mph75%30.47 "Hg31 mi
2:00 AM36 °FOvercast.5 mph75%30.47 "Hg31 mi
1:00 AM36 °FClear.3 mph76%30.47 "Hg31 mi
12:00 AM35 °FClear.2 mph80%30.50 "Hg25 mi
11:00 PM
Dec 21
36 °FClear.3 mph79%30.51 "Hg28 mi
9:00 PM36 °FPassing clouds.2 mph84%30.53 "Hg18 mi
8:00 PM35 °FPassing clouds.3 mph84%30.54 "Hg19 mi
7:00 PM36 °FPassing clouds.3 mph84%30.54 "Hg19 mi
6:00 PM36 °FOvercast.2 mph83%30.54 "Hg22 mi
5:00 PM37 °FPassing clouds.2 mph81%30.54 "Hg25 mi
3:00 PM40 °FScattered clouds.3 mph70%30.52 "Hg37 mi
2:00 PM41 °FPartly sunny.2 mph67%30.53 "Hg34 mi
1:00 PM41 °FScattered clouds.3 mph66%30.54 "Hg40 mi
12:00 PM40 °FPassing clouds.5 mph71%30.56 "Hg28 mi
11:00 AM38 °FPassing clouds.3 mph76%30.58 "Hg43 mi
9:00 AM37 °FOvercast.3 mph82%30.58 "Hg34 mi
8:00 AM36 °FOvercast.3 mph83%30.57 "Hg34 mi
Weather by CustomWeather, © 2014

See weather overviewHow to use our weather pages